Burley, ID

7:06 AM MDT on June 25, 2017 (GMT -0600)
Burley Municipal

Weather History for KBYI - January, 2013

Change the Weather History Date:

Thursday, January 10, 2013

  Actual Average Record
Temperature  
Mean Temperature 32 °F 26 °F  
Max Temperature 41 °F 34 °F 56 °F (1953)
Min Temperature 22 °F 19 °F -21 °F (1949)
Degree Days  
Heating Degree Days 33 39  
Month to date heating degree days 510 390  
Since 1 July heating degree days 2857 3270  
Cooling Degree Days 0 0  
Month to date cooling degree days 0 0  
Year to date cooling degree days 0 0  
Moisture  
Dew Point 22 °F    
Average Humidity 76    
Maximum Humidity 92    
Minimum Humidity 59    
Precipitation  
Precipitation 0.03 in 0.03 in 0.47 in (2017)
Month to date precipitation 0.03 0.33  
Year to date precipitation 0.03 0.33  
Sea Level Pressure  
Sea Level Pressure 29.65 in    
Wind  
Wind Speed 17 mph (WSW)    
Max Wind Speed 29 mph    
Max Gust Speed 40 mph    
Visibility 5 miles    
Events Fog , Rain , Snow    
T = Trace of Precipitation, MM = Missing Value Source: NWS Daily Summary

Daily Weather History Graph

Daily Weather History Graph

Search for Another Location

Airport or City:

Trip Planner

Search our weather history database for the weather conditions in past years. The results will help you decide how hot, cold, wet, or windy it might be!

Date:

Astronomy

Jan. 10, 2013 Rise Set
Actual Time 8:03 AM MST 5:21 PM MST
Civil Twilight 7:32 AM MST 5:53 PM MST
Nautical Twilight 6:57 AM MST 6:28 PM MST
Astronomical Twilight 6:23 AM MST 7:02 PM MST
Moon 6:47 AM MST (1/10) 4:34 PM MST (1/10)
Length of Visible Light 10h 20m
Length of Day
9h 18m
Waning Crescent, 2% of the Moon is Illuminated
Jan 10
Waning Crescent
Jan 11
New
Jan 18
First Quarter
Jan 26
Full
Feb 3
Last Quarter

Hourly Weather History & Observations

Time (MST) Temp. Windchill Dew Point Humidity Pressure Visibility Wind Dir Wind Speed Gust Speed Precip Events Conditions
12:53 AM 39.0 °F 30.6 °F 26.1 °F 60% 29.63 in 10.0 mi South 15.0 mph 25.3 mph N/A   Overcast
1:53 AM 39.0 °F 31.0 °F 27.0 °F 62% 29.63 in 10.0 mi SW 13.8 mph 26.5 mph 0.00 in Rain Light Rain
2:53 AM 41.0 °F 32.8 °F 28.0 °F 60% 29.63 in 10.0 mi SW 16.1 mph 24.2 mph 0.00 in   Overcast
3:53 AM 36.0 °F 28.5 °F 30.0 °F 79% 29.60 in 10.0 mi SSW 10.4 mph - N/A   Overcast
4:53 AM 37.9 °F 33.5 °F 28.9 °F 70% 29.54 in 10.0 mi East 5.8 mph - N/A   Overcast
5:53 AM 37.0 °F 31.6 °F 30.9 °F 79% 29.52 in 10.0 mi ESE 6.9 mph - 0.00 in   Overcast
6:48 AM 32.0 °F 20.8 °F 30.2 °F 93% 29.56 in 2.0 mi West 17.3 mph 25.3 mph 0.00 in Snow Light Snow
6:51 AM 32.0 °F 20.1 °F 30.2 °F 93% 29.56 in 1.2 mi West 19.6 mph 25.3 mph 0.00 in Snow Light Snow
6:53 AM 30.9 °F 19.1 °F 30.0 °F 96% 29.58 in 0.8 mi West 18.4 mph 25.3 mph 0.00 in Snow Light Snow
6:56 AM 30.2 °F 18.9 °F 30.2 °F 100% 29.57 in 0.8 mi West 16.1 mph 25.3 mph 0.00 in Snow Light Snow
7:16 AM 26.6 °F 13.1 °F 26.6 °F 100% 29.58 in 0.5 mi West 19.6 mph 35.7 mph 0.01 in Fog , Snow Snow
7:39 AM 26.6 °F 12.7 °F 24.8 °F 93% 29.59 in 0.5 mi West 20.7 mph 32.2 mph 0.02 in Fog , Snow Snow
7:53 AM 27.0 °F 14.7 °F 25.0 °F 92% 29.63 in 1.0 mi West 16.1 mph 28.8 mph 0.02 in Snow Light Snow
8:01 AM 26.6 °F 13.4 °F 24.8 °F 93% 29.61 in 1.5 mi West 18.4 mph 27.6 mph 0.00 in Snow Light Snow
8:07 AM 26.6 °F 14.3 °F 24.8 °F 93% 29.61 in 0.8 mi West 16.1 mph 29.9 mph 0.00 in Snow Light Snow
8:43 AM 26.6 °F 13.4 °F 24.8 °F 93% 29.64 in 0.2 mi West 18.4 mph 27.6 mph 0.00 in Fog , Snow Heavy Snow
8:53 AM 26.1 °F 13.1 °F 25.0 °F 96% 29.68 in 0.2 mi WSW 17.3 mph 21.9 mph 0.01 in Fog , Snow Heavy Snow
9:31 AM 26.6 °F 14.3 °F 24.8 °F 93% 29.67 in 0.8 mi WSW 16.1 mph - 0.00 in Snow Light Snow
9:40 AM 26.6 °F 14.3 °F 24.8 °F 93% 29.67 in 0.8 mi WSW 16.1 mph 24.2 mph 0.00 in Snow Light Snow
9:53 AM 26.1 °F 12.0 °F 24.1 °F 92% 29.70 in 2.0 mi WSW 20.7 mph 31.1 mph 0.00 in Snow Light Snow
10:08 AM 26.6 °F 14.3 °F 24.8 °F 93% 29.66 in 4.0 mi West 16.1 mph 28.8 mph 0.00 in Snow Light Snow
10:51 AM 26.6 °F 13.1 °F 21.2 °F 80% 29.68 in 6.0 mi WSW 19.6 mph 27.6 mph 0.00 in   Overcast
10:53 AM 26.1 °F 11.6 °F 21.9 °F 84% 29.71 in 6.0 mi WSW 21.9 mph 27.6 mph 0.00 in   Overcast
11:53 AM 25.0 °F 11.7 °F 21.0 °F 85% 29.71 in 8.0 mi West 17.3 mph 24.2 mph 0.00 in Snow Light Snow
12:53 PM 25.0 °F 12.2 °F 21.0 °F 85% 29.68 in 10.0 mi West 16.1 mph 23.0 mph 0.00 in   Overcast
1:09 PM 24.8 °F 10.7 °F 19.4 °F 80% 29.65 in 7.0 mi West 19.6 mph 31.1 mph 0.00 in Snow Light Snow
1:30 PM 24.8 °F 10.0 °F 19.4 °F 80% 29.65 in 4.0 mi West 21.9 mph 33.4 mph 0.00 in Snow Light Snow
1:34 PM 24.8 °F 10.3 °F 19.4 °F 80% 29.65 in 1.8 mi West 20.7 mph 34.5 mph 0.00 in Snow Light Snow
1:42 PM 24.8 °F 11.1 °F 21.2 °F 86% 29.65 in 1.2 mi West 18.4 mph 34.5 mph 0.00 in Snow Light Snow
1:48 PM 24.8 °F 10.3 °F 21.2 °F 86% 29.65 in 2.0 mi West 20.7 mph 32.2 mph 0.00 in Snow Light Snow
1:53 PM 24.1 °F 8.7 °F 19.9 °F 84% 29.69 in 2.5 mi West 23.0 mph 33.4 mph 0.00 in Snow Light Snow
2:03 PM 24.8 °F 10.3 °F 21.2 °F 86% 29.65 in 1.8 mi West 20.7 mph 34.5 mph 0.00 in Snow Light Snow
2:29 PM 24.8 °F 10.3 °F 19.4 °F 80% 29.65 in 2.5 mi West 20.7 mph 38.0 mph 0.00 in Snow Light Snow
2:36 PM 24.8 °F 9.6 °F 19.4 °F 80% 29.65 in 4.0 mi West 23.0 mph 34.5 mph 0.00 in   Overcast
2:51 PM 24.8 °F 9.6 °F 19.4 °F 80% 29.64 in 1.8 mi West 23.0 mph 38.0 mph 0.00 in Snow Light Snow
2:53 PM 24.1 °F 9.0 °F 19.9 °F 84% 29.67 in 1.8 mi West 21.9 mph 38.0 mph 0.00 in Snow Light Snow
3:00 PM 24.8 °F 11.1 °F 19.4 °F 80% 29.63 in 3.0 mi West 18.4 mph 34.5 mph 0.00 in Snow Light Snow
3:32 PM 24.8 °F 9.0 °F 19.4 °F 80% 29.65 in 2.5 mi West 25.3 mph 34.5 mph 0.00 in Snow Light Snow
3:42 PM 24.8 °F 11.1 °F 19.4 °F 80% 29.64 in 4.0 mi West 18.4 mph 35.7 mph 0.00 in Snow Light Snow
3:53 PM 24.1 °F 8.7 °F 19.0 °F 81% 29.70 in 6.0 mi West 23.0 mph 33.4 mph 0.00 in   Overcast
4:53 PM 23.0 °F 7.6 °F 18.0 °F 81% 29.68 in 4.0 mi West 21.9 mph 39.1 mph 0.00 in Snow Light Snow
5:14 PM 23.0 °F 8.3 °F 17.6 °F 80% 29.64 in 6.0 mi West 19.6 mph 36.8 mph 0.00 in Snow Light Snow
5:53 PM 23.0 °F 7.2 °F 18.0 °F 81% 29.68 in 6.0 mi West 23.0 mph 38.0 mph 0.00 in Snow Light Snow
6:53 PM 23.0 °F 6.9 °F 18.0 °F 81% 29.70 in 7.0 mi West 24.2 mph 38.0 mph 0.00 in Snow Light Snow
7:34 PM 21.2 °F 5.6 °F 17.6 °F 86% 29.63 in 9.0 mi West 20.7 mph 36.8 mph 0.00 in   Overcast
7:53 PM 21.9 °F 7.3 °F 18.0 °F 85% 29.71 in 9.0 mi West 18.4 mph 35.7 mph 0.00 in Snow Light Snow
8:38 PM 21.2 °F 7.3 °F 17.6 °F 86% 29.64 in 10.0 mi West 16.1 mph 31.1 mph 0.00 in   Overcast
8:53 PM 21.9 °F 8.7 °F 17.1 °F 82% 29.72 in 10.0 mi SW 15.0 mph 20.7 mph 0.00 in   Mostly Cloudy
9:53 PM 23.0 °F 11.1 °F 16.0 °F 74% 29.70 in 10.0 mi WSW 12.7 mph 33.4 mph 0.00 in   Overcast
10:53 PM 23.0 °F 9.2 °F 17.1 °F 78% 29.70 in 10.0 mi WSW 17.3 mph 25.3 mph 0.00 in   Overcast
11:53 PM 21.9 °F 9.2 °F 18.0 °F 85% 29.73 in 8.0 mi WSW 13.8 mph 27.6 mph 0.00 in   Overcast